Location: Hawks Ness
(60.2333°N, 1.1667°W)
Time: 21:07:53
(UTC+00:00)

Cosmos 1842 - Pass Details

Date: 22 October 2019
Orbit: 521 x 538 km, 82.5° (Epoch: 21 November)

Event Time Altitude Azimuth Distance (km) Brightness Sun altitude
Exits shadow 04:57:24 29° 288° (WNW) 1,000 4.1 -15.9°
Maximum altitude 04:57:43 30° 297° (WNW) 991 4.1 -15.9°
Drops below altitude 10° 05:01:14 10° 360° (N) 1,800 6.0 -15.4°
Sets 05:03:35 0° 11° (N) 2,692 7.0 -15.1°
